Location: Ladysmith
(45.4630°N, 91.1040°W)
Time: 09:45:55
(UTC-05:00)

Amateur Radio Satellites - All Passes

Search period start: 26 September 2017 09:15
Search period end: 27 September 2017 09:15
Location: Ladysmith, 45.4630°N, 91.1040°W

Satellite Date Start Highest point End Downlink Frequencies (MHz)
Time Altitude Azimuth
AAUSAT CUBESAT 2 26 Sep 09:17:10 09:21:18 87° 284° (WNW) 09:25:24 437.432
TIGRISAT 26 Sep 09:24:39 09:28:32 32° 68° (ENE) 09:32:32 435.000
HO-68 26 Sep 09:26:36 09:33:28 50° 295° (WNW) 09:40:18 435.675
Oscar 11 26 Sep 09:33:26 09:37:43 53° 100° (E) 09:41:56 .
AO-73 26 Sep 09:37:43 09:42:21 84° 103° (ESE) 09:46:53 145.935
CUTE 1.7 + AOD 2 26 Sep 09:38:26 09:41:14 17° 297° (WNW) 09:44:01 437.475
ZACube-1 26 Sep 09:42:27 09:47:04 79° 283° (WNW) 09:51:36 437.345
FO-29 26 Sep 09:56:18 10:01:35 44° 261° (W) 10:06:36 435.910
EO-88 26 Sep 10:05:28 10:07:26 14° 91° (E) 10:09:23 145.990 - 145.960
DELFI C3 26 Sep 10:18:13 10:21:53 36° 98° (E) 10:25:30 145.870
UNISAT 6 26 Sep 10:38:07 10:42:16 42° 262° (W) 10:46:34 437.425
UWE-3 26 Sep 10:39:20 10:42:00 15° 299° (WNW) 10:44:40 435.000/436.395/437.385
RS-15 26 Sep 10:39:37 10:50:06 31° 7° (N) 11:00:15 29.354- 29.394
PRISM 26 Sep 10:40:06 10:44:11 69° 258° (WSW) 10:48:16 437.425
CUBEBUG 2 26 Sep 10:41:04 10:41:13 10° 303° (WNW) 10:41:23 437.445
Max Valier Satellite 26 Sep 10:43:52 10:47:35 54° 101° (E) 10:51:13 145.860
POLYITAN 1 26 Sep 10:51:46 10:54:17 16° 62° (ENE) 10:56:48 437.675
EO-79 26 Sep 10:54:58 10:57:39 17° 62° (ENE) 11:00:20 145.935-145.965
O/OREOS (USA 219) 26 Sep 10:58:42 11:02:37 26° 54° (NE) 11:06:30 437.305
TIGRISAT 26 Sep 11:01:31 11:05:15 27° 266° (W) 11:09:04 435.000
QB50P2 26 Sep 11:08:49 11:12:14 24° 66° (ENE) 11:15:41 145.880/145.840
AIST 2D 26 Sep 11:09:02 11:12:27 47° 74° (ENE) 11:15:54 435.315
Oscar 11 26 Sep 11:10:36 11:13:26 17° 297° (WNW) 11:16:16 .
AO-73 26 Sep 11:15:52 11:17:53 13° 301° (WNW) 11:19:53 145.935
HO-68 26 Sep 11:17:15 11:19:32 12° 317° (NW) 11:21:49 435.675
ZACube-1 26 Sep 11:21:35 11:22:31 11° 303° (WNW) 11:23:27 437.345
NO-84 26 Sep 11:34:14 11:36:34 15° 128° (SE) 11:38:49 435.350 FM
EO-88 26 Sep 11:37:49 11:41:19 43° 288° (WNW) 11:44:47 145.990 - 145.960
NANOSAT C BR1 26 Sep 11:40:25 11:44:22 41° 70° (ENE) 11:48:21 145.865
YUBILEINY 26 Sep 11:46:09 11:54:03 41° 86° (E) 12:01:58 435.215
DELFI C3 26 Sep 11:53:33 11:56:24 20° 294° (WNW) 11:59:14 145.870
M-CUBED/EXP-1 PRIME 26 Sep 11:58:33 12:02:13 32° 65° (ENE) 12:05:41 437.505
DUCHIFAT 1 26 Sep 12:06:51 12:11:00 70° 75° (ENE) 12:15:13 145.980
ESTCUBE 1 26 Sep 12:09:21 12:13:32 37° 97° (E) 12:17:39 437.505/2401.250
Max Valier Satellite 26 Sep 12:19:10 12:20:57 13° 297° (WNW) 12:22:43 145.860
LO-87 26 Sep 12:23:48 12:27:26 86° 103° (ESE) 12:31:04 145.935 - 145.965
POLYITAN 1 26 Sep 12:25:26 12:29:36 58° 259° (W) 12:33:49 437.675
VELOX 1 26 Sep 12:27:22 12:28:05 10° 88° (E) 12:28:48 145.980
EO-79 26 Sep 12:28:53 12:32:59 53° 260° (W) 12:37:09 145.935-145.965
BUGSAT 1 26 Sep 12:30:15 12:33:53 34° 69° (ENE) 12:37:35 437.445
O/OREOS (USA 219) 26 Sep 12:37:51 12:42:09 39° 253° (WSW) 12:46:25 437.305
QB50P2 26 Sep 12:44:02 12:47:52 33° 263° (W) 12:51:45 145.880/145.840
AIST 2D 26 Sep 12:44:29 12:45:55 12° 270° (W) 12:47:21 435.315
AO-7 26 Sep 12:51:28 12:55:09 14° 38° (NE) 12:58:49 .
RS-15 26 Sep 12:54:22 13:06:12 53° 39° (NE) 13:17:24 29.354- 29.394
Oscar 19 26 Sep 13:04:12 13:09:06 43° 68° (ENE) 13:14:00 437.125/150
SO-50 26 Sep 13:05:01 13:08:30 22° 113° (ESE) 13:12:00 436.795
NO-84 26 Sep 13:09:43 13:13:38 85° 323° (NW) 13:17:13 435.350 FM
Gurwin Techsat 1B 26 Sep 13:14:22 13:19:12 37° 66° (ENE) 13:24:04 435.225
NANOSAT C BR1 26 Sep 13:17:13 13:20:15 19° 268° (W) 13:23:19 145.865
DX 1 26 Sep 13:25:27 13:26:52 11° 89° (E) 13:28:18 434.975-435.025
M-CUBED/EXP-1 PRIME 26 Sep 13:33:13 13:36:38 24° 258° (WSW) 13:39:53 437.505
PCSat 26 Sep 13:35:02 13:39:06 22° 107° (ESE) 13:43:11 145.827
SPROUT 26 Sep 13:35:39 13:39:58 78° 101° (ESE) 13:44:16 437.525
YUBILEINY 26 Sep 13:42:22 13:50:42 49° 287° (WNW) 13:59:06 435.215
DUCHIFAT 1 26 Sep 13:45:45 13:47:09 11° 272° (W) 13:48:33 145.980
ESTCUBE 1 26 Sep 13:46:30 13:50:09 25° 295° (WNW) 13:53:47 437.505/2401.250
VELOX 1 26 Sep 14:00:41 14:05:06 82° 285° (WNW) 14:09:30 145.980
BUGSAT 1 26 Sep 14:06:11 14:09:20 22° 266° (W) 14:12:32 437.445
ITAMSAT 1 26 Sep 14:18:04 14:21:15 17° 58° (ENE) 14:24:26 435.822/435.867
AO-7 26 Sep 14:38:05 14:45:57 49° 61° (ENE) 14:53:49 .
50 SAT 26 Sep 14:42:06 14:45:23 69° 285° (WNW) 14:48:41 437.505
Oscar 19 26 Sep 14:44:11 14:48:33 27° 266° (W) 14:52:56 437.125/150
SO-50 26 Sep 14:44:18 14:48:39 49° 312° (NW) 14:53:03 436.795
UKube-1 26 Sep 14:45:32 14:49:46 51° 101° (E) 14:53:57 .
NO-84 26 Sep 14:48:24 14:51:24 23° 342° (NNW) 14:54:11 435.350 FM
Gurwin Techsat 1B 26 Sep 14:54:27 14:59:10 32° 264° (W) 15:03:56 435.225
DX 1 26 Sep 14:59:13 15:03:34 74° 286° (WNW) 15:07:53 434.975-435.025
RS-15 26 Sep 15:07:24 15:19:00 60° 246° (WSW) 15:29:59 29.354- 29.394
SPROUT 26 Sep 15:13:28 15:15:14 12° 301° (WNW) 15:17:03 437.525
BEESAT 26 Sep 15:15:02 15:17:45 15° 90° (E) 15:20:27 436.000
PCSat 26 Sep 15:16:41 15:22:03 61° 306° (NW) 15:27:27 145.827
MOZHAYETS 4 26 Sep 15:17:46 15:20:39 16° 90° (E) 15:23:29
VELOX 1 26 Sep 15:40:09 15:40:48 10° 303° (WNW) 15:41:27 145.980
YUBILEINY 26 Sep 15:48:34 15:50:13 11° 313° (NW) 15:51:51 435.215
ITAMSAT 1 26 Sep 15:54:55 16:00:05 78° 256° (WSW) 16:05:18 435.822/435.867
ITUPSAT 1 26 Sep 16:16:47 16:21:32 56° 101° (E) 16:26:16 437.325
UKube-1 26 Sep 16:22:31 16:25:24 18° 298° (WNW) 16:28:17 .
DOVE 4 26 Sep 16:25:51 16:28:59 20° 65° (ENE) 16:32:03 437.250
NO-84 26 Sep 16:27:27 16:29:42 16° 3° (N) 16:31:49 435.350 FM
SO-50 26 Sep 16:28:19 16:30:11 12° 333° (NNW) 16:32:05 436.795
AO-7 26 Sep 16:30:57 16:38:47 44° 261° (W) 16:46:39 .
BEESAT 26 Sep 16:51:13 16:56:00 68° 288° (WNW) 17:00:45 436.000
KKS-1 26 Sep 16:52:54 16:53:08 10° 88° (E) 16:53:22 437.445
MOZHAYETS 4 26 Sep 16:53:36 16:58:11 59° 288° (WNW) 17:02:43
PCSat 26 Sep 17:03:24 17:06:34 15° 328° (NNW) 17:09:46 145.827
XW-2C 26 Sep 17:09:23 17:11:35 15° 64° (ENE) 17:13:47 145.795 - 145.815
RS-15 26 Sep 17:24:17 17:28:31 13° 268° (W) 17:32:42 29.354- 29.394
LilacSat-2 26 Sep 17:24:44 17:27:49 23° 67° (ENE) 17:30:54 437.200
CUBESAT XI-V 26 Sep 17:28:40 17:33:19 72° 102° (ESE) 17:37:54 437.345
KAITUO 1B 26 Sep 17:30:36 17:33:15 18° 66° (ENE) 17:35:55 145.475/437.950
ITUPSAT 1 26 Sep 17:55:30 17:58:57 20° 299° (WNW) 18:02:22 437.325
DOVE 4 26 Sep 18:02:22 18:06:28 41° 262° (W) 18:10:27 437.250
NO-84 26 Sep 18:04:55 18:07:52 31° 25° (NNE) 18:10:37 435.350 FM
CUTE-I 26 Sep 18:06:52 18:12:03 58° 71° (ENE) 18:17:17 437.470
XW-2D 26 Sep 18:07:28 18:11:17 66° 75° (ENE) 18:15:08 145.860 - 145.880
HO-68 26 Sep 18:10:11 18:16:29 35° 60° (ENE) 18:22:48 435.675
XW-2F 26 Sep 18:17:07 18:20:57 78° 75° (ENE) 18:24:48 145.980 - 146.000
XW-2B 26 Sep 18:19:55 18:23:45 88° 87° (E) 18:27:38 145.730 - 145.750
SEEDS 26 Sep 18:23:24 18:25:41 14° 62° (ENE) 18:27:57 437.485
KKS-1 26 Sep 18:25:49 18:30:18 86° 285° (WNW) 18:34:46 437.445
CUBEBUG 2 26 Sep 18:26:31 18:28:55 15° 60° (ENE) 18:31:22 437.445
NUDT-PHONESAT 26 Sep 18:29:04 18:32:49 82° 74° (ENE) 18:36:36 437.300
STARS 26 Sep 18:40:29 18:44:51 57° 101° (E) 18:49:11 437.465
XW-2C 26 Sep 18:41:38 18:45:22 49° 261° (W) 18:49:09 145.795 - 145.815
CUTE 1.7 + AOD 2 26 Sep 18:55:57 19:00:02 45° 72° (ENE) 19:04:09 437.475
LilacSat-2 26 Sep 18:58:29 19:01:56 30° 264° (W) 19:05:24 437.200
AO-73 26 Sep 19:02:48 19:03:41 11° 57° (ENE) 19:04:34 145.935
KAITUO 1B 26 Sep 19:03:27 19:06:59 36° 262° (W) 19:10:33 145.475/437.950
ZACube-1 26 Sep 19:06:32 19:08:33 13° 59° (ENE) 19:10:34 437.345
CUBESAT XI-V 26 Sep 19:07:33 19:10:06 15° 300° (WNW) 19:12:38 437.345
Tancredo 1 26 Sep 19:13:21 19:16:00 75° 148° (SSE) 19:18:40 437.200
BEESAT 3 26 Sep 19:18:01 19:21:55 54° 121° (ESE) 19:25:52 437.485
XW-2A 26 Sep 19:23:32 19:26:40 34° 71° (ENE) 19:29:50 145.665 - 145.685
BEESAT 2 26 Sep 19:34:10 19:37:30 26° 115° (ESE) 19:40:53 435.950
ISS 26 Sep 19:36:03 19:38:35 21° 137° (SE) 19:41:09 437.550
NO-84 26 Sep 19:42:25 19:45:13 33° 225° (SW) 19:47:52 435.350 FM
XW-2D 26 Sep 19:45:12 19:45:53 10° 272° (W) 19:46:34 145.860 - 145.880
CUTE-I 26 Sep 19:48:38 19:52:30 20° 269° (W) 19:56:22 437.470
SO-50 26 Sep 19:54:14 19:55:38 11° 24° (NNE) 19:57:01 436.795
SEEDS 26 Sep 19:56:39 20:00:51 64° 258° (WSW) 20:05:05 437.485
HO-68 26 Sep 19:57:00 20:03:57 53° 259° (W) 20:10:58 435.675
UWE-3 26 Sep 20:00:07 20:04:26 73° 75° (ENE) 20:08:57 435.000/436.395/437.385
CUBEBUG 2 26 Sep 20:00:41 20:04:57 66° 259° (WSW) 20:09:24 437.445
KKS-1 26 Sep 20:04:52 20:06:08 11° 303° (WNW) 20:07:24 437.445
nSIGHT-1 26 Sep 20:08:02 20:11:07 43° 143° (SE) 20:14:12 .
AAUSAT CUBESAT 2 26 Sep 20:08:43 20:12:53 79° 75° (ENE) 20:17:03 437.432
AO-85 26 Sep 20:09:49 20:13:37 56° 122° (ESE) 20:17:30 145.980
STARS 26 Sep 20:17:55 20:20:46 17° 298° (WNW) 20:23:36 437.465
STRAND 1 26 Sep 20:20:52 20:25:55 52° 100° (E) 20:30:56 437.568
Oscar 11 26 Sep 20:29:53 20:34:07 52° 72° (ENE) 20:38:22 .
CUTE 1.7 + AOD 2 26 Sep 20:33:09 20:36:06 18° 269° (W) 20:39:04 437.475
AO-73 26 Sep 20:34:43 20:39:06 82° 75° (ENE) 20:43:37 145.935
PCSat 26 Sep 20:38:46 20:38:57 10° 22° (NNE) 20:39:09 145.827
ZACube-1 26 Sep 20:39:46 20:44:09 79° 258° (WSW) 20:48:40 437.345
Tancredo 1 26 Sep 20:48:18 20:50:37 25° 348° (NNW) 20:52:55 437.200
BEESAT 3 26 Sep 20:56:38 20:59:46 21° 320° (NW) 21:02:55 437.485
XW-2A 26 Sep 20:57:27 20:59:31 15° 268° (W) 21:01:35 145.665 - 145.685
FO-29 26 Sep 21:02:03 21:06:03 19° 92° (E) 21:10:19 435.910
DELFI C3 26 Sep 21:05:30 21:08:54 28° 68° (ENE) 21:12:17 145.870
BEESAT 2 26 Sep 21:11:20 21:15:06 36° 313° (NW) 21:18:54 435.950
ISS 26 Sep 21:11:33 21:14:49 65° 335° (NNW) 21:18:05 437.550
Max Valier Satellite 26 Sep 21:24:35 21:27:55 32° 70° (ENE) 21:31:18 145.860
SO-50 26 Sep 21:32:57 21:37:19 41° 47° (NE) 21:41:41 436.795
UWE-3 26 Sep 21:39:46 21:41:28 12° 273° (W) 21:43:11 435.000/436.395/437.385
nSIGHT-1 26 Sep 21:44:23 21:47:28 39° 342° (NNW) 21:50:34 .
AO-85 26 Sep 21:51:27 21:54:21 19° 322° (NW) 21:57:18 145.980
YUBILEINY 26 Sep 21:53:14 21:59:53 23° 61° (ENE) 22:06:30 435.215
STRAND 1 26 Sep 22:00:45 22:04:45 23° 298° (WNW) 22:08:44 437.568
Oscar 11 26 Sep 22:07:49 22:10:33 16° 269° (W) 22:13:19 .
AO-73 26 Sep 22:15:01 22:15:58 11° 274° (W) 22:16:54 145.935
EO-88 26 Sep 22:16:49 22:20:28 77° 257° (WSW) 22:24:10 145.990 - 145.960
PCSat 26 Sep 22:19:16 22:24:09 32° 46° (NE) 22:29:00 145.827
PRISM 26 Sep 22:20:35 22:22:33 13° 91° (E) 22:24:29 437.425
Tancredo 1 26 Sep 22:23:21 22:25:33 22° 8° (N) 22:27:45 437.200
UNISAT 6 26 Sep 22:27:07 22:31:25 35° 96° (E) 22:35:42 437.425
DELFI C3 26 Sep 22:40:22 22:43:37 24° 265° (W) 22:46:53 145.870
FO-29 26 Sep 22:46:02 22:51:32 67° 287° (WNW) 22:57:40 435.910
ISS 26 Sep 22:48:48 22:51:42 27° 354° (N) 22:54:35 437.550
TIGRISAT 26 Sep 22:49:34 22:54:11 53° 100° (E) 22:58:46 435.000
Max Valier Satellite 26 Sep 22:59:08 23:01:50 19° 267° (W) 23:04:34 145.860
LO-87 26 Sep 23:01:34 23:04:57 44° 73° (ENE) 23:08:22 145.935 - 145.965
ESTCUBE 1 26 Sep 23:10:36 23:14:54 44° 70° (ENE) 23:19:12 437.505/2401.250
SO-50 26 Sep 23:13:40 23:17:38 29° 245° (WSW) 23:21:37 436.795
nSIGHT-1 26 Sep 23:21:31 23:24:20 26° 2° (N) 23:27:09 .
VELOX 1 26 Sep 23:25:54 23:28:08 14° 60° (ENE) 23:30:22 145.980
YUBILEINY 26 Sep 23:49:07 23:57:53 86° 263° (W) 00:06:40 435.215
PRISM 26 Sep 23:54:11 23:58:10 57° 288° (WNW) 00:02:09 437.425
Tancredo 1 26 Sep 23:57:37 00:00:16 67° 25° (NNE) 00:02:56 437.200
PCSat 27 Sep 00:02:32 00:07:44 47° 245° (WSW) 00:12:52 145.827
UNISAT 6 27 Sep 00:03:59 00:08:00 29° 294° (WNW) 00:12:00 437.425
AIST 2D 27 Sep 00:04:46 00:08:08 42° 98° (E) 00:11:28 435.315
POLYITAN 1 27 Sep 00:08:35 00:11:43 19° 92° (E) 00:14:51 437.675
EO-79 27 Sep 00:11:42 00:14:58 21° 93° (E) 00:18:12 145.935-145.965
DX 1 27 Sep 00:22:42 00:25:07 15° 60° (ENE) 00:27:31 434.975-435.025
ISS 27 Sep 00:25:41 00:28:45 34° 14° (NNE) 00:31:48 437.550
QB50P2 27 Sep 00:26:14 00:30:07 32° 97° (E) 00:33:57 145.880/145.840
TIGRISAT 27 Sep 00:27:06 00:30:29 20° 297° (WNW) 00:33:51 435.000
SPROUT 27 Sep 00:30:35 00:34:49 76° 74° (ENE) 00:39:04 437.525
FO-29 27 Sep 00:34:06 00:35:48 11° 305° (NW) 00:37:31 435.910
LO-87 27 Sep 00:37:03 00:38:37 12° 269° (W) 00:40:12 145.935 - 145.965
ESTCUBE 1 27 Sep 00:48:29 00:51:53 21° 267° (W) 00:55:18 437.505/2401.250
NANOSAT C BR1 27 Sep 00:57:35 01:01:48 56° 100° (E) 01:06:00 145.865
nSIGHT-1 27 Sep 00:57:58 01:01:08 50° 22° (NNE) 01:04:19 .
VELOX 1 27 Sep 00:59:38 01:04:01 72° 257° (WSW) 01:08:25 145.980
M-CUBED/EXP-1 PRIME 27 Sep 01:10:25 01:11:30 11° 96° (E) 01:12:37 437.505
50 SAT 27 Sep 01:13:25 01:16:37 50° 73° (ENE) 01:19:50 437.505
O/OREOS (USA 219) 27 Sep 01:14:20 01:17:23 18° 100° (E) 01:20:27 437.305
Oscar 19 27 Sep 01:15:33 01:17:28 12° 87° (E) 01:19:22 437.125/150
DUCHIFAT 1 27 Sep 01:23:53 01:28:11 86° 286° (WNW) 01:32:26 145.980
Gurwin Techsat 1B 27 Sep 01:30:23 01:32:06 11° 86° (E) 01:33:49 435.225
Tancredo 1 27 Sep 01:32:48 01:34:22 14° 224° (SW) 01:35:55 437.200
AIST 2D 27 Sep 01:39:04 01:40:58 14° 296° (WNW) 01:42:51 435.315
UKube-1 27 Sep 01:41:41 01:45:54 57° 72° (ENE) 01:50:08 .
POLYITAN 1 27 Sep 01:43:37 01:47:41 42° 290° (WNW) 01:51:45 437.675
BUGSAT 1 27 Sep 01:44:19 01:48:21 43° 99° (E) 01:52:24 437.445
EO-79 27 Sep 01:46:51 01:50:51 39° 290° (WNW) 01:54:50 145.935-145.965
YUBILEINY 27 Sep 01:47:48 01:53:22 19° 284° (WNW) 01:58:56 435.215
ITUPSAT 1 27 Sep 01:51:17 01:53:06 12° 56° (NE) 01:54:56 437.325
DX 1 27 Sep 01:56:29 02:00:47 65° 258° (WSW) 02:05:06 434.975-435.025
BEESAT 3 27 Sep 01:56:32 01:58:15 12° 31° (NNE) 01:59:56 437.485
ISS 27 Sep 02:02:08 02:05:23 61° 214° (SSW) 02:08:38 437.550
QB50P2 27 Sep 02:02:12 02:05:46 26° 294° (WNW) 02:09:19 145.880/145.840
SPROUT 27 Sep 02:10:16 02:11:14 11° 272° (W) 02:12:13 437.525
MOZHAYETS 4 27 Sep 02:21:32 02:24:58 21° 63° (ENE) 02:28:25
BEESAT 27 Sep 02:23:05 02:26:49 23° 63° (ENE) 02:30:34 436.000
NANOSAT C BR1 27 Sep 02:34:27 02:37:05 16° 298° (WNW) 02:39:42 145.865
nSIGHT-1 27 Sep 02:34:28 02:37:21 29° 220° (SW) 02:40:13 .
AO-7 27 Sep 02:42:15 02:42:48 10° 83° (E) 02:43:21 .
M-CUBED/EXP-1 PRIME 27 Sep 02:43:06 02:46:14 41° 294° (WNW) 02:49:19 437.505
O/OREOS (USA 219) 27 Sep 02:51:58 02:56:22 51° 299° (WNW) 03:00:50 437.305
Oscar 19 27 Sep 02:52:19 02:57:31 90° 158° (SSE) 03:02:39 437.125/150
AO-85 27 Sep 02:58:31 03:01:29 18° 37° (NE) 03:04:35 145.980
CUBESAT XI-V 27 Sep 02:59:47 03:01:40 12° 58° (ENE) 03:03:32 437.345
DUCHIFAT 1 27 Sep 03:02:36 03:03:07 10° 302° (WNW) 03:03:38 145.980
Gurwin Techsat 1B 27 Sep 03:07:29 03:12:51 84° 104° (ESE) 03:18:10 435.225
UKube-1 27 Sep 03:19:53 03:22:17 15° 269° (W) 03:24:41 .
BUGSAT 1 27 Sep 03:20:21 03:23:25 20° 296° (WNW) 03:26:30 437.445
RS-15 27 Sep 03:24:24 03:32:29 21° 97° (E) 03:40:35 29.354- 29.394
ITUPSAT 1 27 Sep 03:25:22 03:30:09 84° 73° (ENE) 03:34:59 437.325
BEESAT 3 27 Sep 03:32:37 03:36:37 64° 52° (NE) 03:40:30 437.485
BEESAT 2 27 Sep 03:49:04 03:52:48 34° 46° (NE) 03:56:29 435.950
KKS-1 27 Sep 03:51:47 03:54:04 14° 59° (ENE) 03:56:22 437.445
MOZHAYETS 4 27 Sep 03:57:19 04:01:47 48° 261° (W) 04:06:19
BEESAT 27 Sep 03:59:44 04:04:19 45° 261° (W) 04:08:55 436.000
ITAMSAT 1 27 Sep 04:05:45 04:10:22 31° 96° (E) 04:14:58 435.822/435.867
AO-7 27 Sep 04:29:13 04:37:23 58° 103° (ESE) 04:45:30 .
Oscar 19 27 Sep 04:33:23 04:36:05 14° 303° (WNW) 04:38:46 437.125/150
CUBESAT XI-V 27 Sep 04:33:36 04:38:18 89° 84° (E) 04:43:02 437.345
AO-85 27 Sep 04:37:59 04:42:25 87° 233° (SW) 04:47:11 145.980
Gurwin Techsat 1B 27 Sep 04:48:58 04:52:06 16° 303° (WNW) 04:55:13 435.225
ITUPSAT 1 27 Sep 05:06:52 05:08:36 12° 272° (W) 05:10:21 437.325
BEESAT 3 27 Sep 05:11:39 05:13:39 14° 250° (WSW) 05:15:37 437.485
KKS-1 27 Sep 05:25:39 05:30:04 72° 257° (WSW) 05:34:30 437.445
BEESAT 2 27 Sep 05:26:58 05:30:27 28° 244° (WSW) 05:33:53 435.950
RS-15 27 Sep 05:30:39 05:42:53 76° 120° (ESE) 05:55:08 29.354- 29.394
STARS 27 Sep 05:38:49 05:43:07 66° 74° (ENE) 05:47:28 437.465
ITAMSAT 1 27 Sep 05:45:05 05:49:52 38° 294° (WNW) 05:54:38 435.822/435.867
DOVE 4 27 Sep 05:57:54 06:01:57 39° 98° (E) 06:06:10 437.250
STRAND 1 27 Sep 06:02:51 06:05:29 14° 57° (ENE) 06:08:08 437.568
XW-2C 27 Sep 06:13:05 06:15:12 14° 91° (E) 06:17:18 145.795 - 145.815
CUBESAT XI-V 27 Sep 06:15:20 06:16:19 11° 273° (W) 06:17:20 437.345
AO-85 27 Sep 06:20:41 06:22:15 12° 251° (WSW) 06:23:51 145.980
CUTE-I 27 Sep 06:22:25 06:26:13 19° 91° (E) 06:29:59 437.470
AO-7 27 Sep 06:22:26 06:29:50 38° 303° (WNW) 06:37:15 .
LilacSat-2 27 Sep 06:29:25 06:32:32 23° 94° (E) 06:35:36 437.200
KAITUO 1B 27 Sep 06:32:50 06:35:24 18° 92° (E) 06:37:58 145.475/437.950
XW-2D 27 Sep 07:11:44 07:15:33 72° 102° (ESE) 07:19:18 145.860 - 145.880
STARS 27 Sep 07:17:54 07:19:54 13° 270° (W) 07:21:56 437.465
XW-2F 27 Sep 07:20:55 07:24:43 84° 103° (ESE) 07:28:29 145.980 - 146.000
HO-68 27 Sep 07:22:26 07:28:28 28° 93° (E) 07:34:29 435.675
XW-2B 27 Sep 07:24:14 07:28:03 84° 284° (WNW) 07:31:50 145.730 - 145.750
NUDT-PHONESAT 27 Sep 07:30:44 07:34:30 84° 105° (ESE) 07:38:11 437.300
DOVE 4 27 Sep 07:36:09 07:39:27 22° 294° (WNW) 07:42:52 437.250
STRAND 1 27 Sep 07:38:50 07:43:56 89° 255° (WSW) 07:49:05 437.568
SEEDS 27 Sep 07:38:59 07:41:52 18° 91° (E) 07:44:44 437.485
RS-15 27 Sep 07:44:48 07:56:30 45° 326° (NNW) 08:08:06 29.354- 29.394
XW-2C 27 Sep 07:45:59 07:49:38 45° 287° (WNW) 07:53:15 145.795 - 145.815
UWE-3 27 Sep 07:48:47 07:51:16 14° 88° (E) 07:53:44 435.000/436.395/437.385
CUBEBUG 2 27 Sep 07:49:20 07:53:11 24° 93° (E) 07:57:01 437.445
AAUSAT CUBESAT 2 27 Sep 07:51:17 07:51:56 10° 88° (E) 07:52:35 437.432
CUTE-I 27 Sep 08:01:24 08:06:40 62° 289° (WNW) 08:11:56 437.470
LilacSat-2 27 Sep 08:03:29 08:06:47 28° 291° (WNW) 08:10:03 437.200
KAITUO 1B 27 Sep 08:06:05 08:09:31 35° 290° (WNW) 08:12:55 145.475/437.950
CUTE 1.7 + AOD 2 27 Sep 08:13:59 08:18:13 68° 101° (E) 08:22:24 437.475
XW-2A 27 Sep 08:15:32 08:18:29 26° 96° (E) 08:21:24 145.665 - 145.685
AO-7 27 Sep 08:18:43 08:20:15 11° 327° (NNW) 08:21:47 .
AO-73 27 Sep 08:21:45 08:24:20 15° 89° (E) 08:26:53 145.935
ZACube-1 27 Sep 08:26:37 08:29:50 19° 91° (E) 08:33:02 437.345
XW-2D 27 Sep 08:48:16 08:49:08 11° 299° (WNW) 08:50:00 145.860 - 145.880
FO-29 27 Sep 09:00:59 09:06:25 66° 72° (ENE) 09:11:34 435.910
